When you browse on this site, cookies collect data to enhance your experience and personalize the content and advertising you see.
Visit our Privacy Policy to learn more. By continuing to use the site, you agree to this use of cookies and data.
  • In France
  • List of Countries
  • For 7 days
  • Water Temperature
  • Satellite Maps
  • Weather Map
  • Weather Widgets
  • user-avatar
    Login

    Hourly Weather Xiancun

    Today, 19 July, Friday

    Time Temperature Precipitation Wind Pressure Humidity
    00:00 +27°C° 0 mm 1 mps 728 mmHg 95%
    01:00 +27°C° 0 mm 1 mps 728 mmHg 95%
    02:00 +27°C° 0 mm 1 mps 728 mmHg 96%
    03:00 +27°C° 0 mm 1 mps 727 mmHg 96%
    04:00 +27°C° 0 mm 1 mps 727 mmHg 96%
    05:00 +26°C° 0 mm 1 mps 727 mmHg 96%
    06:00 +28°C° 0 mm 1 mps 728 mmHg 92%
    07:00 +29°C° 0 mm 1 mps 728 mmHg 89%
    08:00 +30°C° 0 mm 1 mps 729 mmHg 85%
    09:00 +32°C° 0 mm 1 mps 729 mmHg 76%
    10:00 +34°C° 0 mm 1 mps 729 mmHg 67%
    11:00 +35°C° 0 mm 1 mps 729 mmHg 57%
    12:00 +35°C° 0 mm 1 mps 729 mmHg 58%
    13:00 +35°C° 0 mm 1 mps 729 mmHg 59%
    14:00 +35°C° 0 mm 1 mps 728 mmHg 60%
    15:00 +35°C° 0.3 mm 1 mps 728 mmHg 64%
    16:00 +34°C° 0.3 mm 1 mps 728 mmHg 69%
    17:00 +34°C° 0.3 mm 1 mps 728 mmHg 73%
    18:00 +32°C° 0.2 mm 1 mps 729 mmHg 80%
    19:00 +28°C° 0.2 mm 0 mps 729 mmHg 86%
    20:00 +26°C° 0.2 mm 0 mps 730 mmHg 92%
    21:00 +26°C° 0.1 mm 0 mps 730 mmHg 92%
    22:00 +26°C° 0.1 mm 0 mps 730 mmHg 92%
    23:00 +28°C° 0.1 mm 1 mps 731 mmHg 92%

    Tomorrow, 20 July, Saturday

    Time Temperature Precipitation Wind Pressure Humidity
    00:00 +28°C° 0 mm 1 mps 730 mmHg 92%
    01:00 +28°C° 0 mm 1 mps 730 mmHg 91%
    02:00 +27°C° 0 mm 1 mps 730 mmHg 91%
    03:00 +27°C° 0.1 mm 1 mps 730 mmHg 91%
    04:00 +27°C° 0.1 mm 1 mps 730 mmHg 91%
    05:00 +27°C° 0.1 mm 1 mps 731 mmHg 91%
    06:00 +29°C° 0 mm 1 mps 731 mmHg 87%
    07:00 +28°C° 0 mm 0 mps 732 mmHg 83%
    08:00 +30°C° 0 mm 0 mps 732 mmHg 79%
    09:00 +33°C° 0.6 mm 1 mps 732 mmHg 73%
    10:00 +35°C° 0.6 mm 1 mps 732 mmHg 66%
    11:00 +37°C° 0.6 mm 1 mps 732 mmHg 60%
    12:00 +36°C° 1.5 mm 1 mps 732 mmHg 65%
    13:00 +35°C° 1.5 mm 1 mps 731 mmHg 71%
    14:00 +35°C° 1.5 mm 1 mps 731 mmHg 77%
    15:00 +34°C° 2.4 mm 1 mps 730 mmHg 82%
    16:00 +33°C° 2.4 mm 1 mps 730 mmHg 86%
    17:00 +32°C° 2.4 mm 1 mps 730 mmHg 91%
    18:00 +31°C° 0.7 mm 1 mps 731 mmHg 92%
    19:00 +28°C° 0.7 mm 0 mps 731 mmHg 92%
    20:00 +27°C° 0.7 mm 0 mps 731 mmHg 93%
    21:00 +26°C° 0.1 mm 0 mps 732 mmHg 94%
    22:00 +26°C° 0.1 mm 0 mps 732 mmHg 94%
    23:00 +26°C° 0.1 mm 0 mps 732 mmHg 95%

    Day after tomorrow, 21 July, Sunday

    Time Temperature Precipitation Wind Pressure Humidity
    00:00 +26°C° 0 mm 0 mps 732 mmHg 95%
    01:00 +25°C° 0 mm 0 mps 732 mmHg 95%
    02:00 +25°C° 0 mm 0 mps 731 mmHg 95%
    03:00 +25°C° 0 mm 0 mps 731 mmHg 95%
    04:00 +25°C° 0 mm 0 mps 732 mmHg 95%
    05:00 +25°C° 0 mm 0 mps 732 mmHg 95%
    06:00 +26°C° 0 mm 0 mps 732 mmHg 94%
    07:00 +27°C° 0 mm 0 mps 733 mmHg 92%
    08:00 +28°C° 0 mm 0 mps 733 mmHg 91%
    09:00 +29°C° 0.8 mm 0 mps 733 mmHg 86%
    10:00 +32°C° 0.8 mm 1 mps 733 mmHg 81%
    11:00 +34°C° 0.8 mm 1 mps 732 mmHg 76%
    12:00 +34°C° 1.4 mm 1 mps 732 mmHg 74%
    13:00 +34°C° 1.4 mm 1 mps 732 mmHg 73%
    14:00 +35°C° 1.4 mm 1 mps 731 mmHg 71%
    15:00 +34°C° 2.7 mm 1 mps 731 mmHg 77%
    16:00 +33°C° 2.7 mm 1 mps 731 mmHg 83%
    17:00 +32°C° 2.7 mm 1 mps 730 mmHg 89%
    18:00 +31°C° 1.1 mm 1 mps 731 mmHg 90%
    19:00 +28°C° 1.1 mm 0 mps 731 mmHg 92%
    20:00 +27°C° 1.1 mm 0 mps 732 mmHg 94%
    21:00 +26°C° 0.8 mm 0 mps 732 mmHg 94%
    22:00 +26°C° 0.8 mm 0 mps 732 mmHg 94%
    23:00 +28°C° 0.8 mm 1 mps 733 mmHg 95%

    22 July, Monday

    Time Temperature Precipitation Wind Pressure Humidity
    00:00 +26°C° 0.2 mm 0 mps 732 mmHg 95%
    01:00 +25°C° 0.2 mm 0 mps 732 mmHg 95%
    02:00 +25°C° 0.2 mm 0 mps 732 mmHg 95%
    03:00 +27°C° 0.1 mm 1 mps 732 mmHg 95%
    04:00 +27°C° 0.1 mm 1 mps 732 mmHg 95%
    05:00 +27°C° 0.1 mm 1 mps 731 mmHg 95%
    06:00 +28°C° 0.1 mm 1 mps 732 mmHg 93%
    07:00 +29°C° 0.1 mm 1 mps 732 mmHg 91%
    08:00 +30°C° 0.1 mm 1 mps 733 mmHg 90%
    09:00 +31°C° 0.2 mm 1 mps 733 mmHg 86%
    10:00 +31°C° 0.2 mm 1 mps 733 mmHg 82%
    11:00 +32°C° 0.2 mm 1 mps 732 mmHg 78%
    12:00 +33°C° 1.4 mm 1 mps 732 mmHg 77%
    13:00 +33°C° 1.4 mm 1 mps 732 mmHg 75%
    14:00 +34°C° 1.4 mm 1 mps 732 mmHg 74%
    15:00 +33°C° 1.3 mm 1 mps 731 mmHg 78%
    16:00 +33°C° 1.3 mm 1 mps 731 mmHg 82%
    17:00 +32°C° 1.3 mm 1 mps 731 mmHg 86%
    18:00 +31°C° 0.8 mm 1 mps 731 mmHg 89%
    19:00 +29°C° 0.8 mm 1 mps 732 mmHg 93%
    20:00 +28°C° 0.8 mm 1 mps 732 mmHg 96%
    21:00 +28°C° 0.1 mm 1 mps 732 mmHg 96%
    22:00 +25°C° 0.1 mm 0 mps 732 mmHg 96%
    23:00 +25°C° 0.1 mm 0 mps 733 mmHg 96%

    23 July, Tuesday

    Time Temperature Precipitation Wind Pressure Humidity
    00:00 +25°C° 0 mm 0 mps 732 mmHg 96%
    01:00 +25°C° 0 mm 0 mps 732 mmHg 96%
    02:00 +25°C° 0 mm 0 mps 732 mmHg 96%
    03:00 +27°C° 0 mm 1 mps 732 mmHg 96%
    04:00 +26°C° 0 mm 1 mps 732 mmHg 96%
    05:00 +26°C° 0 mm 1 mps 732 mmHg 96%
    06:00 +27°C° 0 mm 1 mps 732 mmHg 93%
    07:00 +27°C° 0 mm 0 mps 733 mmHg 90%
    08:00 +28°C° 0 mm 0 mps 733 mmHg 88%
    09:00 +32°C° 0 mm 1 mps 733 mmHg 78%
    10:00 +34°C° 0 mm 1 mps 733 mmHg 68%
    11:00 +36°C° 0 mm 2 mps 732 mmHg 58%
    12:00 +36°C° 1.3 mm 2 mps 732 mmHg 66%
    13:00 +34°C° 1.3 mm 1 mps 732 mmHg 74%
    14:00 +33°C° 1.3 mm 1 mps 731 mmHg 81%
    15:00 +33°C° 1 mm 1 mps 731 mmHg 81%
    16:00 +33°C° 1 mm 1 mps 731 mmHg 81%
    17:00 +32°C° 1 mm 1 mps 731 mmHg 82%
    18:00 +31°C° 0.1 mm 1 mps 731 mmHg 86%
    19:00 +29°C° 0.1 mm 1 mps 732 mmHg 90%
    20:00 +26°C° 0.1 mm 0 mps 732 mmHg 95%
    21:00 +26°C° 0.3 mm 0 mps 732 mmHg 95%
    22:00 +26°C° 0.3 mm 0 mps 732 mmHg 95%
    23:00 +27°C° 0.3 mm 1 mps 732 mmHg 95%

    24 July, Wednesday

    Time Temperature Precipitation Wind Pressure Humidity
    00:00 +27°C° 0 mm 1 mps 732 mmHg 94%
    01:00 +27°C° 0 mm 1 mps 732 mmHg 94%
    02:00 +27°C° 0 mm 1 mps 732 mmHg 94%
    03:00 +27°C° 0 mm 1 mps 732 mmHg 93%
    04:00 +26°C° 0 mm 1 mps 732 mmHg 93%
    05:00 +26°C° 0 mm 1 mps 732 mmHg 92%
    06:00 +28°C° 0 mm 1 mps 732 mmHg 89%
    07:00 +29°C° 0 mm 1 mps 732 mmHg 85%
    08:00 +30°C° 0 mm 1 mps 733 mmHg 82%
    09:00 +32°C° 0 mm 1 mps 733 mmHg 73%
    10:00 +34°C° 0 mm 1 mps 733 mmHg 64%
    11:00 +37°C° 0 mm 2 mps 733 mmHg 55%
    12:00 +36°C° 0.6 mm 2 mps 733 mmHg 60%
    13:00 +36°C° 0.6 mm 2 mps 732 mmHg 65%
    14:00 +35°C° 0.6 mm 2 mps 732 mmHg 70%
    15:00 +34°C° 0.7 mm 1 mps 732 mmHg 73%
    16:00 +33°C° 0.7 mm 1 mps 731 mmHg 75%
    17:00 +33°C° 0.7 mm 1 mps 731 mmHg 78%
    18:00 +31°C° 0.1 mm 1 mps 732 mmHg 83%
    19:00 +30°C° 0.1 mm 1 mps 732 mmHg 88%
    20:00 +28°C° 0.1 mm 1 mps 732 mmHg 93%
    21:00 +28°C° 0 mm 1 mps 733 mmHg 92%
    22:00 +28°C° 0 mm 1 mps 733 mmHg 92%
    23:00 +27°C° 0 mm 1 mps 733 mmHg 92%
    Show more